Location: Nena
(32.3271°N, 96.8558°W)
Time: 09:44:12
(UTC+00:00)

Daily predictions for brighter satellites

Satellite Brightness Start Highest point End
(mag) Time Altitude Azimuth Time Altitude Azimuth Time Altitude Azimuth
SL-16 R/B 3.0 12:00:45 10° NW 12:05:36 30° WSW 12:10:27 10° SSW
DMSP B5D2-2 4.1 12:01:11 10° S 12:06:23 65° WSW 12:11:38 10° NNW
Cosmos 1703 Rocket 3.8 12:02:04 10° S 12:06:25 76° E 12:10:45 10° N
Cosmos 1809 Rocket 4.5 12:00:45 10° N 12:06:54 80° W 12:13:03 10° S
COSMOS 2455 2.9 12:02:13 10° NNW 12:08:16 83° WSW 12:14:16 10° SSE
